[Iaude] MPEC R176: 2023 RO6 [a=1.41,e=0.32,i=20.1,H=26.7]
    mpec at marsden.cfa.harvard.edu 
    mpec at marsden.cfa.harvard.edu
       
    Wed Sep 13 12:00:39 EDT 2023
    
    
  
M.P.E.C. 2023-R176                           Issued 2023 September 13, 15:59 UT
     The Minor Planet Electronic Circulars contain information on unusual
         minor planets, routine data on comets and natural satellites,
         and occasional editorial announcements.  They are published
    on behalf of Division F of the International Astronomical Union by the
          Minor Planet Center, Smithsonian Astrophysical Observatory,
                          Cambridge, MA 02138, U.S.A.
			  
             Prepared using the Tamkin Foundation Computer Network
                              MPC at CFA.HARVARD.EDU
            URL https://www.minorplanetcenter.net/    ISSN 1523-6714
                                    2023 RO6                                    
Observations:
     K23R06O*KC2023 09 12.01295 23 22 36.97 +25 42 16.1          19.7 GXER176L51
     K23R06O KC2023 09 12.01458 23 22 34.70 +25 43 07.4          19.6 GXER176L51
     K23R06O KC2023 09 12.01620 23 22 32.42 +25 43 59.3          19.8 GXER176L51
     K23R06O 1C2023 09 12.08489 23 21 06.75 +26 19 05.2          21.2 VXER176033
     K23R06O 1C2023 09 12.08518 23 21 06.37 +26 19 13.9          20.9 VXER176033
     K23R06O 1C2023 09 12.08547 23 21 05.99 +26 19 22.6          20.8 VXER176033
     K23R06O KC2023 09 12.77443 23 08 41.07 +31 17 46.6          20.1 GXER176L51
     K23R06O KC2023 09 12.77856 23 08 36.66 +31 19 18.1          20.2 GXER176L51
     K23R06O KC2023 09 12.78269 23 08 32.22 +31 20 49.7          20.6 GXER176L51
     K23R06O 6C2023 09 12.85043623 07 29.502+31 45 19.20         20.6 GVER176Z84
     K23R06O KC2023 09 12.86313 23 07 05.63 +31 49 53.8          20.1 GXER176L51
     K23R06O KC2023 09 12.86729 23 07 01.17 +31 51 22.0          20.4 GXER176L51
     K23R06O KC2023 09 12.87144 23 06 56.68 +31 52 49.6          20.4 GXER176L51
     K23R06O KC2023 09 12.88769 23 06 39.34 +31 58 29.0          20.1 GXER176L51
     K23R06O KC2023 09 12.89374 23 06 32.88 +32 00 34.4          20.4 GXER176L51
     K23R06O KC2023 09 12.89978 23 06 26.48 +32 02 39.1          20.4 GXER176L51
     K23R06O 1C2023 09 13.08860 23 03 20.77 +33 03 48.4          20.2 VXER176033
     K23R06O 1C2023 09 13.08941 23 03 20.00 +33 04 03.7          20.1 VXER176033
     K23R06O 1C2023 09 13.09021 23 03 19.24 +33 04 18.4          20.1 VXER176033
     K23R06O KC2023 09 13.10276023 03 31.04 +33 09 10.2          20.4 VuER176H21
     K23R06O KC2023 09 13.10555623 03 28.31 +33 10 04.3          20.3 VuER176H21
     K23R06O KC2023 09 13.10835323 03 25.59 +33 10 57.9          20.8 VuER176H21
     K23R06O KC2023 09 13.11059023 03 23.40 +33 11 41.1          20.5 VuER176H21
Observer details:
033 Karl Schwarzschild Observatory, Tautenburg.  Observers S. Melnikov, C.
    Hoegner, F. Ludwig, M. Hartmann, B. Stecklum.  Measurer B. Stecklum.
    1.34-m f/3 Schmidt + CCD.
H21 Astronomical Research Observatory, Westfield.  Observer R. Holmes.
    Measurers T. Linder, R. Holmes, L. Horn.  0.76-m f/3.0 astrograph + CCD.
L51 MARGO, Nauchnyi.  Observer G. Borisov.  0.50-m f/1.9 reflector + CCD.
Z84 Calar Alto-Schmidt.  Observers M. Micheli, R. Kresken.  Measurers R.
    Kresken, M. Micheli, F. Ocana, L. Conversi.  0.8-m f/3 Schmidt + CCD.
Orbital elements:
2023 RO6                                                 Earth MOID = 0.0137 AU
Epoch 2023 Sept. 13.0 TT = JDT 2460200.5                Bell                    
M  22.08674              (2000.0)            P               Q                  
n   0.58835910     Peri.  320.05371     +0.61499925     +0.78488100             
a   1.4105042      Node   347.27410     -0.60670132     +0.40963807             
e   0.3157006      Incl.   20.11220     -0.50367592     +0.46492846             
P   1.68           H   26.73          G   0.15           U   8                  
Residuals in seconds of arc
230912 L51  0.9+  0.8-    230912 L51  0.2-  0.5-    230913 033  0.1-  0.6-
230912 L51  0.4+  0.6-    230912 Z84  0.0   0.3-    230913 033  0.0   0.3-
230912 L51  0.5-  0.6+    230912 L51  0.0   0.7-    230913 033  0.1+  0.3-
230912 033  0.3-  0.6+    230912 L51  0.1+  0.3-    230913 H21  0.2-  0.4+
230912 033  0.2-  0.5+    230912 L51  0.5-  0.1+    230913 H21  0.1-  0.4+
230912 033  0.2-  0.4+    230912 L51  0.2-  0.1+    230913 H21  0.2+  0.0
230912 L51  0.7-  0.7+    230912 L51  0.3-  0.1+    230913 H21  0.2+  0.0
230912 L51  0.3-  0.1-    230912 L51  0.1-  0.1+
Ephemeris:
2023 RO6                 a,e,i = 1.41, 0.32, 20                  q = 0.9652
Date    TT    R. A. (2000) Decl.     Delta      r    Elong.  Phase     V
2023 08 14    09 10 00.2 -56 01 24   0.1878  0.9677    70.8    98.7    26.6
...
2023 08 29    08 31 27.5 -60 19 54   0.08354 0.9899    73.7   101.7    25.0
...
2023 09 06    05 31 26.5 -64 16 32   0.02811 1.0097    92.3    86.1    22.0
...
2023 09 12    23 23 06.3 +25 37 19   0.02430 1.0278   149.9    29.4    20.0
2023 09 13    23 04 53.5 +32 37 03   0.03056 1.0310   143.1    35.9    20.7
2023 09 14    22 51 28.4 +37 03 26   0.03723 1.0343   138.5    40.2    21.2
...
2023 09 20    22 14 06.2 +46 33 44   0.07984 1.0554   127.9    48.7    23.2
...
2023 09 28    22 00 27.9 +49 05 56   0.1382  1.0865   124.5    49.5    24.5
...
2023 10 13    22 01 48.2 +49 02 05   0.2487  1.1516   122.7    46.8    25.8
M. P. C. Staff               (C) Copyright 2023 MPC           M.P.E.C. 2023-R176
    
    
More information about the Iaude
mailing list